User: anonymous   Login
Location: Unspecified
(0.0000°N, 0.0000°E)
Time: 22:44:43
(UTC+00:00)
Language:

STARLINK-33801 - Orbit

View from above orbital plane
View from above orbital plane
View from above satellite
View from above satellite

Ground track
Ground track

The orbit is defined by the following mean orbital elements,

1 63963U          26145.36027189 +.00000000 +00000-0 +71315-3 0 00004
2 63963  43.0009 103.0839 0001516 261.1463  98.9217 15.27597948    08
Epoch (UTC): 25 May 2026 08:38:47
Eccentricity: 0.0001516
inclination: 43.0009°
perigee height: 482 km
apogee height: 484 km
right ascension of ascending node: 103.0839°
argument of perigee: 261.1463°
revolutions per day: 15.27597948
mean anomaly at epoch: 98.9217°

The dashed part of the orbit path shows where the satellite is in the earth's shadow,  

DLR